Year,Month,Day,Hour,Minute,Value (Times are PST for temperature in C)
2015,06,11,00,00,13.80
2015,06,11,00,01,13.80
2015,06,11,00,02,13.80
2015,06,11,00,03,13.90
2015,06,11,00,04,13.90
2015,06,11,00,05,14.00
2015,06,11,00,06,14.00
2015,06,11,00,07,14.00
2015,06,11,00,08,14.10
2015,06,11,00,09,14.10
2015,06,11,00,10,14.20
2015,06,11,00,11,14.20
2015,06,11,00,12,14.20
2015,06,11,00,13,14.20
2015,06,11,00,14,14.20
2015,06,11,00,15,14.20
2015,06,11,00,16,14.20
2015,06,11,00,17,14.20
2015,06,11,00,18,14.20
2015,06,11,00,19,14.20
2015,06,11,00,20,14.20
2015,06,11,00,21,14.20
2015,06,11,00,22,14.20
2015,06,11,00,23,14.20
2015,06,11,00,24,14.20
2015,06,11,00,25,14.20
2015,06,11,00,26,14.20
2015,06,11,00,27,14.20
2015,06,11,00,28,14.20
2015,06,11,00,29,14.20
2015,06,11,00,30,14.20
2015,06,11,00,31,14.10
2015,06,11,00,32,14.10
2015,06,11,00,33,14.10
2015,06,11,00,34,14.10
2015,06,11,00,35,14.00
2015,06,11,00,36,14.00
2015,06,11,00,37,13.90
2015,06,11,00,38,13.90
2015,06,11,00,39,13.90
2015,06,11,00,40,13.80
2015,06,11,00,41,13.80
2015,06,11,00,42,13.80
2015,06,11,00,43,13.70
2015,06,11,00,44,13.70
2015,06,11,00,45,13.60
2015,06,11,00,46,13.60
2015,06,11,00,47,13.60
2015,06,11,00,48,13.50
2015,06,11,00,49,13.50
2015,06,11,00,50,13.40
2015,06,11,00,51,13.40
2015,06,11,00,52,13.30
2015,06,11,00,53,13.30
2015,06,11,00,54,13.30
2015,06,11,00,55,13.20
2015,06,11,00,56,13.20
2015,06,11,00,57,13.20
2015,06,11,00,58,13.10
2015,06,11,00,59,13.10
2015,06,11,01,00,13.10
2015,06,11,01,01,13.10
2015,06,11,01,02,13.10
2015,06,11,01,03,13.10
2015,06,11,01,04,13.10
2015,06,11,01,05,13.10
2015,06,11,01,06,13.10
2015,06,11,01,07,13.20
2015,06,11,01,08,13.20
2015,06,11,01,09,13.20
2015,06,11,01,10,13.30
2015,06,11,01,11,13.30
2015,06,11,01,12,13.30
2015,06,11,01,13,13.30
2015,06,11,01,14,13.30
2015,06,11,01,15,13.30
2015,06,11,01,16,13.40
2015,06,11,01,17,13.40
2015,06,11,01,18,13.40
2015,06,11,01,19,13.40
2015,06,11,01,20,13.50
2015,06,11,01,21,13.50
2015,06,11,01,22,13.50
2015,06,11,01,23,13.60
2015,06,11,01,24,13.70
2015,06,11,01,25,13.70
2015,06,11,01,26,13.80
2015,06,11,01,27,13.80
2015,06,11,01,28,13.90
2015,06,11,01,29,13.90
2015,06,11,01,30,13.90
2015,06,11,01,31,13.90
2015,06,11,01,32,13.90
2015,06,11,01,33,13.90
2015,06,11,01,34,13.90
2015,06,11,01,35,13.90
2015,06,11,01,36,13.90
2015,06,11,01,37,13.90
2015,06,11,01,38,13.90
2015,06,11,01,39,14.00
2015,06,11,01,40,14.00
2015,06,11,01,41,14.00
2015,06,11,01,42,14.00
2015,06,11,01,43,14.00
2015,06,11,01,44,14.10
2015,06,11,01,45,14.10
2015,06,11,01,46,14.10
2015,06,11,01,47,14.10
2015,06,11,01,48,14.10
2015,06,11,01,49,14.10
2015,06,11,01,50,14.10
2015,06,11,01,51,14.10
2015,06,11,01,52,14.10
2015,06,11,01,53,14.10
2015,06,11,01,54,14.10
2015,06,11,01,55,14.10
2015,06,11,01,56,14.00
2015,06,11,01,57,14.00
2015,06,11,01,58,14.00
2015,06,11,01,59,14.10
2015,06,11,02,00,14.00
2015,06,11,02,01,14.00
2015,06,11,02,02,14.00
2015,06,11,02,03,14.00
2015,06,11,02,04,14.00
2015,06,11,02,05,14.00
2015,06,11,02,06,14.00
2015,06,11,02,07,13.90
2015,06,11,02,08,13.90
2015,06,11,02,09,13.90
2015,06,11,02,10,13.90
2015,06,11,02,11,13.90
2015,06,11,02,12,13.90
2015,06,11,02,13,13.80
2015,06,11,02,14,13.80
2015,06,11,02,15,13.80
2015,06,11,02,16,13.80
2015,06,11,02,17,13.80
2015,06,11,02,18,13.70
2015,06,11,02,19,13.70
2015,06,11,02,20,13.70
2015,06,11,02,21,13.70
2015,06,11,02,22,13.70
2015,06,11,02,23,13.70
2015,06,11,02,24,13.60
2015,06,11,02,25,13.60
2015,06,11,02,26,13.60
2015,06,11,02,27,13.60
2015,06,11,02,28,13.60
2015,06,11,02,29,13.60
2015,06,11,02,30,13.50
2015,06,11,02,31,13.50
2015,06,11,02,32,13.50
2015,06,11,02,33,13.60
2015,06,11,02,34,13.60
2015,06,11,02,35,13.60
2015,06,11,02,36,13.60
2015,06,11,02,37,13.60
2015,06,11,02,38,13.60
2015,06,11,02,39,13.60
2015,06,11,02,40,13.60
2015,06,11,02,41,13.60
2015,06,11,02,42,13.60
2015,06,11,02,43,13.50
2015,06,11,02,44,13.50
2015,06,11,02,45,13.50
2015,06,11,02,46,13.50
2015,06,11,02,47,13.40
2015,06,11,02,48,13.40
2015,06,11,02,49,13.40
2015,06,11,02,50,13.40
2015,06,11,02,51,13.40
2015,06,11,02,52,13.40
2015,06,11,02,53,13.40
2015,06,11,02,54,13.40
2015,06,11,02,55,13.50
2015,06,11,02,56,13.40
2015,06,11,02,57,13.50
2015,06,11,02,58,13.50
2015,06,11,02,59,13.50
2015,06,11,03,00,13.50
2015,06,11,03,01,13.50
2015,06,11,03,02,13.50
2015,06,11,03,03,13.50
2015,06,11,03,04,13.50
2015,06,11,03,05,13.50
2015,06,11,03,06,13.50
2015,06,11,03,07,13.50
2015,06,11,03,08,13.50
2015,06,11,03,09,13.50
2015,06,11,03,10,13.50
2015,06,11,03,11,13.50
2015,06,11,03,12,13.60
2015,06,11,03,13,13.60
2015,06,11,03,14,13.60
2015,06,11,03,15,13.60
2015,06,11,03,16,13.60
2015,06,11,03,17,13.60
2015,06,11,03,18,13.60
2015,06,11,03,19,13.60
2015,06,11,03,20,13.50
2015,06,11,03,21,13.50
2015,06,11,03,22,13.50
2015,06,11,03,23,13.50
2015,06,11,03,24,13.40
2015,06,11,03,25,13.50
2015,06,11,03,26,13.40
2015,06,11,03,27,13.40
2015,06,11,03,28,13.50
2015,06,11,03,29,13.50
2015,06,11,03,30,13.40
2015,06,11,03,31,13.40
2015,06,11,03,32,13.40
2015,06,11,03,33,13.40
2015,06,11,03,34,13.40
2015,06,11,03,35,13.40
2015,06,11,03,36,13.40
2015,06,11,03,37,13.40
2015,06,11,03,38,13.40
2015,06,11,03,39,13.40
2015,06,11,03,40,13.40
2015,06,11,03,41,13.40
2015,06,11,03,42,13.30
2015,06,11,03,43,13.30
2015,06,11,03,44,13.30
2015,06,11,03,45,13.30
2015,06,11,03,46,13.30
2015,06,11,03,47,13.30
2015,06,11,03,48,13.30
2015,06,11,03,49,13.30
2015,06,11,03,50,13.30
2015,06,11,03,51,13.20
2015,06,11,03,52,13.20
2015,06,11,03,53,13.20
2015,06,11,03,54,13.20
2015,06,11,03,55,13.20
2015,06,11,03,56,13.20
2015,06,11,03,57,13.30
2015,06,11,03,58,13.20
2015,06,11,03,59,13.20
2015,06,11,04,00,13.20
2015,06,11,04,01,13.30
2015,06,11,04,02,13.20
2015,06,11,04,03,13.30
2015,06,11,04,04,13.30
2015,06,11,04,05,13.30
2015,06,11,04,06,13.30
2015,06,11,04,07,13.30
2015,06,11,04,08,13.30
2015,06,11,04,09,13.30
2015,06,11,04,10,13.20
2015,06,11,04,11,13.30
2015,06,11,04,12,13.30
2015,06,11,04,13,13.30
2015,06,11,04,14,13.30
2015,06,11,04,15,13.30
2015,06,11,04,16,13.30
2015,06,11,04,17,13.30
2015,06,11,04,18,13.30
2015,06,11,04,19,13.30
2015,06,11,04,20,13.30
2015,06,11,04,21,13.30
2015,06,11,04,22,13.30
2015,06,11,04,23,13.30
2015,06,11,04,24,13.30
2015,06,11,04,25,13.30
2015,06,11,04,26,13.30
2015,06,11,04,27,13.20
2015,06,11,04,28,13.20
2015,06,11,04,29,13.20
2015,06,11,04,30,13.20
2015,06,11,04,31,13.20
2015,06,11,04,32,13.20
2015,06,11,04,33,13.20
2015,06,11,04,34,13.20
2015,06,11,04,35,13.20
2015,06,11,04,36,13.20
2015,06,11,04,37,13.20
2015,06,11,04,38,13.20
2015,06,11,04,39,13.10
2015,06,11,04,40,13.10
2015,06,11,04,41,13.10
2015,06,11,04,42,13.10
2015,06,11,04,43,13.10
2015,06,11,04,44,13.10
2015,06,11,04,45,13.10
2015,06,11,04,46,13.10
2015,06,11,04,47,13.10
2015,06,11,04,48,13.10
2015,06,11,04,49,13.10
2015,06,11,04,50,13.10
2015,06,11,04,51,13.10
2015,06,11,04,52,13.10
2015,06,11,04,53,13.10
2015,06,11,04,54,13.10
2015,06,11,04,55,13.10
2015,06,11,04,56,13.10
2015,06,11,04,57,13.00
2015,06,11,04,58,13.00
2015,06,11,04,59,13.00
2015,06,11,05,00,13.00
2015,06,11,05,01,12.90
2015,06,11,05,02,12.90
2015,06,11,05,03,12.90
2015,06,11,05,04,12.90
2015,06,11,05,05,12.90
2015,06,11,05,06,12.90
2015,06,11,05,07,12.90
2015,06,11,05,08,12.90
2015,06,11,05,09,12.90
2015,06,11,05,10,12.90
2015,06,11,05,11,12.90
2015,06,11,05,12,12.90
2015,06,11,05,13,12.90
2015,06,11,05,14,12.90
2015,06,11,05,15,12.90
2015,06,11,05,16,12.90
2015,06,11,05,17,12.90
2015,06,11,05,18,12.90
2015,06,11,05,19,12.90
2015,06,11,05,20,12.90
2015,06,11,05,21,13.00
2015,06,11,05,22,13.00
2015,06,11,05,23,13.00
2015,06,11,05,24,13.10
2015,06,11,05,25,13.10
2015,06,11,05,26,13.10
2015,06,11,05,27,13.10
2015,06,11,05,28,13.10
2015,06,11,05,29,13.10
2015,06,11,05,30,13.10
2015,06,11,05,31,13.10
2015,06,11,05,32,13.10
2015,06,11,05,33,13.10
2015,06,11,05,34,13.10
2015,06,11,05,35,13.10
2015,06,11,05,36,13.10
2015,06,11,05,37,13.10
2015,06,11,05,38,13.10
2015,06,11,05,39,13.10
2015,06,11,05,40,13.10
2015,06,11,05,41,13.10
2015,06,11,05,42,13.10
2015,06,11,05,43,13.10
2015,06,11,05,44,13.10
2015,06,11,05,45,13.10
2015,06,11,05,46,13.10
2015,06,11,05,47,13.10
2015,06,11,05,48,13.10
2015,06,11,05,49,13.10
2015,06,11,05,50,13.10
2015,06,11,05,51,13.10
2015,06,11,05,52,13.10
2015,06,11,05,53,13.10
2015,06,11,05,54,13.10
2015,06,11,05,55,13.10
2015,06,11,05,56,13.10
2015,06,11,05,57,13.10
2015,06,11,05,58,13.10
2015,06,11,05,59,13.10
2015,06,11,06,00,13.10
2015,06,11,06,01,13.20
2015,06,11,06,02,13.20
2015,06,11,06,03,13.20
2015,06,11,06,04,13.20
2015,06,11,06,05,13.20
2015,06,11,06,06,13.20
2015,06,11,06,07,13.20
2015,06,11,06,08,13.20
2015,06,11,06,09,13.20
2015,06,11,06,10,13.20
2015,06,11,06,11,13.20
2015,06,11,06,12,13.20
2015,06,11,06,13,13.20
2015,06,11,06,14,13.20
2015,06,11,06,15,13.20
2015,06,11,06,16,13.20
2015,06,11,06,17,13.20
2015,06,11,06,18,13.20
2015,06,11,06,19,13.20
2015,06,11,06,20,13.20
2015,06,11,06,21,13.20
2015,06,11,06,22,13.30
2015,06,11,06,23,13.30
2015,06,11,06,24,13.30
2015,06,11,06,25,13.30
2015,06,11,06,26,13.30
2015,06,11,06,27,13.30
2015,06,11,06,28,13.40
2015,06,11,06,29,13.40
2015,06,11,06,30,13.40
2015,06,11,06,31,13.40
2015,06,11,06,32,13.40
2015,06,11,06,33,13.50
2015,06,11,06,34,13.50
2015,06,11,06,35,13.50
2015,06,11,06,36,13.60
2015,06,11,06,37,13.60
2015,06,11,06,38,13.60
2015,06,11,06,39,13.60
2015,06,11,06,40,13.70
2015,06,11,06,41,13.70
2015,06,11,06,42,13.70
2015,06,11,06,43,13.70
2015,06,11,06,44,13.80
2015,06,11,06,45,13.80
2015,06,11,06,46,13.80
2015,06,11,06,47,13.80
2015,06,11,06,48,13.80
2015,06,11,06,49,13.90
2015,06,11,06,50,13.90
2015,06,11,06,51,13.90
2015,06,11,06,52,14.00
2015,06,11,06,53,14.00
2015,06,11,06,54,14.00
2015,06,11,06,55,14.10
2015,06,11,06,56,14.10
2015,06,11,06,57,14.10
2015,06,11,06,58,14.20
2015,06,11,06,59,14.20
2015,06,11,07,00,14.20
2015,06,11,07,01,14.20
2015,06,11,07,02,14.20
2015,06,11,07,03,14.20
2015,06,11,07,04,14.20
2015,06,11,07,05,14.20
2015,06,11,07,06,14.20
2015,06,11,07,07,14.20
2015,06,11,07,08,14.30
2015,06,11,07,09,14.30
2015,06,11,07,10,14.30
2015,06,11,07,11,14.30
2015,06,11,07,12,14.30
2015,06,11,07,13,14.30
2015,06,11,07,14,14.30
2015,06,11,07,15,14.40
2015,06,11,07,16,14.40
2015,06,11,07,17,14.40
2015,06,11,07,18,14.40
2015,06,11,07,19,14.40
2015,06,11,07,20,14.40
2015,06,11,07,21,14.40
2015,06,11,07,22,14.40
2015,06,11,07,23,14.40
2015,06,11,07,24,14.50
2015,06,11,07,25,14.50
2015,06,11,07,26,14.50
2015,06,11,07,27,14.60
2015,06,11,07,28,14.60
2015,06,11,07,29,14.60
2015,06,11,07,30,14.60
2015,06,11,07,31,14.70
2015,06,11,07,32,14.70
2015,06,11,07,33,14.70
2015,06,11,07,34,14.70
2015,06,11,07,35,14.70
2015,06,11,07,36,14.70
2015,06,11,07,37,14.80
2015,06,11,07,38,14.80
2015,06,11,07,39,14.80
2015,06,11,07,40,14.80
2015,06,11,07,41,14.80
2015,06,11,07,42,14.90
2015,06,11,07,43,14.90
2015,06,11,07,44,14.90
2015,06,11,07,45,15.00
2015,06,11,07,46,15.00
2015,06,11,07,47,15.10
2015,06,11,07,48,15.10
2015,06,11,07,49,15.10
2015,06,11,07,50,15.10
2015,06,11,07,51,15.10
2015,06,11,07,52,15.20
2015,06,11,07,53,15.20
2015,06,11,07,54,15.20
2015,06,11,07,55,15.20
2015,06,11,07,56,15.20
2015,06,11,07,57,15.20
2015,06,11,07,58,15.20
2015,06,11,07,59,15.20
2015,06,11,08,00,15.20
2015,06,11,08,01,15.20
2015,06,11,08,02,15.20
2015,06,11,08,03,15.20
2015,06,11,08,04,15.20
2015,06,11,08,05,15.20
2015,06,11,08,06,15.20
2015,06,11,08,07,15.20
2015,06,11,08,08,15.20
2015,06,11,08,09,15.20
2015,06,11,08,10,15.30
2015,06,11,08,11,15.30
2015,06,11,08,12,15.30
2015,06,11,08,13,15.30
2015,06,11,08,14,15.30
2015,06,11,08,15,15.30
2015,06,11,08,16,15.30
2015,06,11,08,17,15.30
2015,06,11,08,18,15.30
2015,06,11,08,19,15.30
2015,06,11,08,20,15.40
2015,06,11,08,21,15.40
2015,06,11,08,22,15.40
2015,06,11,08,23,15.40
2015,06,11,08,24,15.40
2015,06,11,08,25,15.40
2015,06,11,08,26,15.40
2015,06,11,08,27,15.50
2015,06,11,08,28,15.50
2015,06,11,08,29,15.60
2015,06,11,08,30,15.60
2015,06,11,08,31,15.60
2015,06,11,08,32,15.60
2015,06,11,08,33,15.60
2015,06,11,08,34,15.60
2015,06,11,08,35,15.60
2015,06,11,08,36,15.60
2015,06,11,08,37,15.60
2015,06,11,08,38,15.60
2015,06,11,08,39,15.70
2015,06,11,08,40,15.70
2015,06,11,08,41,15.70
2015,06,11,08,42,15.80
2015,06,11,08,43,15.80
2015,06,11,08,44,15.80
2015,06,11,08,45,15.80
2015,06,11,08,46,15.80
2015,06,11,08,47,15.80
2015,06,11,08,48,15.80
2015,06,11,08,49,15.70
2015,06,11,08,50,15.70
2015,06,11,08,51,15.70
2015,06,11,08,52,15.80
2015,06,11,08,53,15.80
2015,06,11,08,54,15.80
2015,06,11,08,55,15.80
2015,06,11,08,56,15.90
2015,06,11,08,57,15.90
2015,06,11,08,58,15.90
2015,06,11,08,59,15.90
2015,06,11,09,00,15.90
2015,06,11,09,01,15.90
2015,06,11,09,02,15.90
2015,06,11,09,03,15.90
2015,06,11,09,04,15.90
2015,06,11,09,05,15.90
2015,06,11,09,06,15.90
2015,06,11,09,07,15.90
2015,06,11,09,08,16.00
2015,06,11,09,09,16.10
2015,06,11,09,10,16.10
2015,06,11,09,11,16.10
2015,06,11,09,12,16.10
2015,06,11,09,13,16.20
2015,06,11,09,14,16.20
2015,06,11,09,15,16.20
2015,06,11,09,16,16.20
2015,06,11,09,17,16.20
2015,06,11,09,18,16.20
2015,06,11,09,19,16.20
2015,06,11,09,20,16.30
2015,06,11,09,21,16.30
2015,06,11,09,22,16.30
2015,06,11,09,23,16.30
2015,06,11,09,24,16.30
2015,06,11,09,25,16.40
2015,06,11,09,26,16.40
2015,06,11,09,27,16.40
2015,06,11,09,28,16.40
2015,06,11,09,29,16.40
2015,06,11,09,30,16.40
2015,06,11,09,31,16.30
2015,06,11,09,32,16.30
2015,06,11,09,33,16.30
2015,06,11,09,34,16.30
2015,06,11,09,35,16.30
2015,06,11,09,36,16.30
2015,06,11,09,37,16.40
2015,06,11,09,38,16.40
2015,06,11,09,39,16.40
2015,06,11,09,40,16.50
2015,06,11,09,41,16.50
2015,06,11,09,42,16.50
2015,06,11,09,43,16.50
2015,06,11,09,44,16.60
2015,06,11,09,45,16.60
2015,06,11,09,46,16.70
2015,06,11,09,47,16.80
2015,06,11,09,48,16.80
2015,06,11,09,49,16.90
2015,06,11,09,50,16.90
2015,06,11,09,51,16.90
2015,06,11,09,52,16.90
2015,06,11,09,53,16.90
2015,06,11,09,54,16.90
2015,06,11,09,55,16.80
2015,06,11,09,56,16.70
2015,06,11,09,57,16.60
2015,06,11,09,58,16.60
2015,06,11,09,59,16.60
2015,06,11,10,00,16.60
2015,06,11,10,01,16.60
2015,06,11,10,02,16.60
2015,06,11,10,03,16.60
2015,06,11,10,04,16.60
2015,06,11,10,05,16.60
2015,06,11,10,06,16.60
2015,06,11,10,07,16.60
2015,06,11,10,08,16.50
2015,06,11,10,09,16.40
2015,06,11,10,10,16.50
2015,06,11,10,11,16.50
2015,06,11,10,12,16.60
2015,06,11,10,13,16.60
2015,06,11,10,14,16.60
2015,06,11,10,15,16.60
2015,06,11,10,16,16.70
2015,06,11,10,17,16.70
2015,06,11,10,18,16.70
2015,06,11,10,19,16.80
2015,06,11,10,20,16.80
2015,06,11,10,21,16.80
2015,06,11,10,22,16.80
2015,06,11,10,23,16.80
2015,06,11,10,24,16.80
2015,06,11,10,25,16.80
2015,06,11,10,26,16.80
2015,06,11,10,27,16.80
2015,06,11,10,28,16.80
2015,06,11,10,29,16.90
2015,06,11,10,30,16.90
2015,06,11,10,31,16.90
2015,06,11,10,32,17.00
2015,06,11,10,33,17.10
2015,06,11,10,34,17.10
2015,06,11,10,35,17.10
2015,06,11,10,36,17.10
2015,06,11,10,37,17.10
2015,06,11,10,38,17.00
2015,06,11,10,39,17.00
2015,06,11,10,40,17.00
2015,06,11,10,41,17.00
2015,06,11,10,42,17.10
2015,06,11,10,43,17.10
2015,06,11,10,44,17.20
2015,06,11,10,45,17.20
2015,06,11,10,46,17.20
2015,06,11,10,47,17.30
2015,06,11,10,48,17.30
2015,06,11,10,49,17.20
2015,06,11,10,50,17.30
2015,06,11,10,51,17.30
2015,06,11,10,52,17.30
2015,06,11,10,53,17.20
2015,06,11,10,54,17.20
2015,06,11,10,55,17.30
2015,06,11,10,56,17.30
2015,06,11,10,57,17.30
2015,06,11,10,58,17.40
2015,06,11,10,59,17.40
2015,06,11,11,00,17.50
2015,06,11,11,01,17.50
2015,06,11,11,02,17.60
2015,06,11,11,03,17.60
2015,06,11,11,04,17.50
2015,06,11,11,05,17.50
2015,06,11,11,06,17.40
2015,06,11,11,07,17.40
2015,06,11,11,08,17.30
2015,06,11,11,09,17.30
2015,06,11,11,10,17.20
2015,06,11,11,11,17.20
2015,06,11,11,12,17.10
2015,06,11,11,13,17.20
2015,06,11,11,14,17.20
2015,06,11,11,15,17.20
2015,06,11,11,16,17.10
2015,06,11,11,17,17.10
2015,06,11,11,18,17.10
2015,06,11,11,19,17.10
2015,06,11,11,20,17.20
2015,06,11,11,21,17.20
2015,06,11,11,22,17.30
2015,06,11,11,23,17.30
2015,06,11,11,24,17.40
2015,06,11,11,25,17.40
2015,06,11,11,26,17.40
2015,06,11,11,27,17.40
2015,06,11,11,28,17.40
2015,06,11,11,29,17.40
2015,06,11,11,30,17.50
2015,06,11,11,31,17.50
2015,06,11,11,32,17.50
2015,06,11,11,33,17.50
2015,06,11,11,34,17.50
2015,06,11,11,35,17.50
2015,06,11,11,36,17.50
2015,06,11,11,37,17.60
2015,06,11,11,38,17.60
2015,06,11,11,39,17.70
2015,06,11,11,40,17.70
2015,06,11,11,41,17.70
2015,06,11,11,42,17.60
2015,06,11,11,43,17.70
2015,06,11,11,44,17.70
2015,06,11,11,45,17.70
2015,06,11,11,46,17.70
2015,06,11,11,47,17.70
2015,06,11,11,48,17.70
2015,06,11,11,49,17.70
2015,06,11,11,50,17.80
2015,06,11,11,51,17.80
2015,06,11,11,52,17.90
2015,06,11,11,53,17.90
2015,06,11,11,54,18.00
2015,06,11,11,55,18.00
2015,06,11,11,56,18.00
2015,06,11,11,57,18.10
2015,06,11,11,58,18.10
2015,06,11,11,59,18.10
2015,06,11,12,00,18.10
2015,06,11,12,01,18.10
2015,06,11,12,02,18.10
2015,06,11,12,03,18.10
2015,06,11,12,04,18.10
2015,06,11,12,05,18.20
2015,06,11,12,06,18.20
2015,06,11,12,07,18.10
2015,06,11,12,08,18.10
2015,06,11,12,09,18.10
2015,06,11,12,10,18.10
2015,06,11,12,11,18.10
2015,06,11,12,12,18.20
2015,06,11,12,13,18.20
2015,06,11,12,14,18.20
2015,06,11,12,15,18.20
2015,06,11,12,16,18.20
2015,06,11,12,17,18.20
2015,06,11,12,18,18.30
2015,06,11,12,19,18.30
2015,06,11,12,20,18.30
2015,06,11,12,21,18.30
2015,06,11,12,22,18.40
2015,06,11,12,23,18.50
2015,06,11,12,24,18.60
2015,06,11,12,25,18.60
2015,06,11,12,26,18.70
2015,06,11,12,27,18.70
2015,06,11,12,28,18.70
2015,06,11,12,29,18.70
2015,06,11,12,30,18.80
2015,06,11,12,31,18.90
2015,06,11,12,32,19.00
2015,06,11,12,33,19.10
2015,06,11,12,34,19.00
2015,06,11,12,35,18.90
2015,06,11,12,36,18.70
2015,06,11,12,37,18.60
2015,06,11,12,38,18.60
2015,06,11,12,39,18.60
2015,06,11,12,40,18.60
2015,06,11,12,41,18.60
2015,06,11,12,42,18.50
2015,06,11,12,43,18.50
2015,06,11,12,44,18.50
2015,06,11,12,45,18.50
2015,06,11,12,46,18.50
2015,06,11,12,47,18.60
2015,06,11,12,48,18.60
2015,06,11,12,49,18.70
2015,06,11,12,50,18.70
2015,06,11,12,51,18.70
2015,06,11,12,52,18.70
2015,06,11,12,53,18.70
2015,06,11,12,54,18.70
2015,06,11,12,55,18.70
2015,06,11,12,56,18.70
2015,06,11,12,57,18.70
2015,06,11,12,58,18.70
2015,06,11,12,59,18.70
2015,06,11,13,00,18.70
2015,06,11,13,01,18.70
2015,06,11,13,02,18.80
2015,06,11,13,03,18.80
2015,06,11,13,04,18.80
2015,06,11,13,05,18.80
2015,06,11,13,06,18.90
2015,06,11,13,07,18.80
2015,06,11,13,08,18.80
2015,06,11,13,09,18.80
2015,06,11,13,10,18.90
2015,06,11,13,11,18.90
2015,06,11,13,12,19.00
2015,06,11,13,13,19.00
2015,06,11,13,14,19.10
2015,06,11,13,15,19.10
2015,06,11,13,16,19.20
2015,06,11,13,17,19.20
2015,06,11,13,18,19.20
2015,06,11,13,19,19.20
2015,06,11,13,20,19.20
2015,06,11,13,21,19.20
2015,06,11,13,22,19.30
2015,06,11,13,23,19.40
2015,06,11,13,24,19.50
2015,06,11,13,25,19.50
2015,06,11,13,26,19.60
2015,06,11,13,27,19.70
2015,06,11,13,28,19.80
2015,06,11,13,29,19.80
2015,06,11,13,30,19.80
2015,06,11,13,31,19.80
2015,06,11,13,32,19.90
2015,06,11,13,33,19.80
2015,06,11,13,34,19.80
2015,06,11,13,35,19.80
2015,06,11,13,36,19.70
2015,06,11,13,37,19.70
2015,06,11,13,38,19.70
2015,06,11,13,39,19.70
2015,06,11,13,40,19.70
2015,06,11,13,41,19.70
2015,06,11,13,42,19.80
2015,06,11,13,43,19.90
2015,06,11,13,44,20.00
2015,06,11,13,45,20.10
2015,06,11,13,46,20.20
2015,06,11,13,47,20.20
2015,06,11,13,48,20.30
2015,06,11,13,49,20.30
2015,06,11,13,50,20.30
2015,06,11,13,51,20.30
2015,06,11,13,52,20.20
2015,06,11,13,53,20.20
2015,06,11,13,54,20.20
2015,06,11,13,55,20.20
2015,06,11,13,56,20.20
2015,06,11,13,57,20.20
2015,06,11,13,58,20.30
2015,06,11,13,59,20.40
2015,06,11,14,00,20.40
2015,06,11,14,01,20.40
2015,06,11,14,02,20.30
2015,06,11,14,03,20.30
2015,06,11,14,04,20.30
2015,06,11,14,05,20.30
2015,06,11,14,06,20.30
2015,06,11,14,07,20.10
2015,06,11,14,08,20.10
2015,06,11,14,09,20.00
2015,06,11,14,10,20.00
2015,06,11,14,11,20.00
2015,06,11,14,12,20.00
2015,06,11,14,13,20.00
2015,06,11,14,14,20.10
2015,06,11,14,15,20.20
2015,06,11,14,16,20.20
2015,06,11,14,17,20.20
2015,06,11,14,18,20.30
2015,06,11,14,19,20.30
2015,06,11,14,20,20.30
2015,06,11,14,21,20.30
2015,06,11,14,22,20.30
2015,06,11,14,23,20.20
2015,06,11,14,24,20.10
2015,06,11,14,25,20.10
2015,06,11,14,26,20.00
2015,06,11,14,27,20.00
2015,06,11,14,28,20.00
2015,06,11,14,29,20.10
2015,06,11,14,30,20.10
2015,06,11,14,31,20.20
2015,06,11,14,32,20.30
2015,06,11,14,33,20.30
2015,06,11,14,34,20.40
2015,06,11,14,35,20.40
2015,06,11,14,36,20.50
2015,06,11,14,37,20.50
2015,06,11,14,38,20.40
2015,06,11,14,39,20.50
2015,06,11,14,40,20.60
2015,06,11,14,41,20.60
2015,06,11,14,42,20.70
2015,06,11,14,43,20.70
2015,06,11,14,44,20.70
2015,06,11,14,45,20.70
2015,06,11,14,46,20.60
2015,06,11,14,47,20.60
2015,06,11,14,48,20.60
2015,06,11,14,49,20.60
2015,06,11,14,50,20.50
2015,06,11,14,51,20.40
2015,06,11,14,52,20.40
2015,06,11,14,53,20.40
2015,06,11,14,54,20.40
2015,06,11,14,55,20.40
2015,06,11,14,56,20.40
2015,06,11,14,57,20.40
2015,06,11,14,58,20.50
2015,06,11,14,59,20.50
2015,06,11,15,00,20.60
2015,06,11,15,01,20.60
2015,06,11,15,02,20.60
2015,06,11,15,03,20.60
2015,06,11,15,04,20.60
2015,06,11,15,05,20.60
2015,06,11,15,06,20.60
2015,06,11,15,07,20.70
2015,06,11,15,08,20.70
2015,06,11,15,09,20.80
2015,06,11,15,10,20.90
2015,06,11,15,11,21.00
2015,06,11,15,12,21.10
2015,06,11,15,13,21.10
2015,06,11,15,14,21.20
2015,06,11,15,15,21.20
2015,06,11,15,16,21.20
2015,06,11,15,17,21.10
2015,06,11,15,18,21.10
2015,06,11,15,19,21.10
2015,06,11,15,20,21.10
2015,06,11,15,21,21.10
2015,06,11,15,22,21.20
2015,06,11,15,23,21.20
2015,06,11,15,24,21.20
2015,06,11,15,25,21.20
2015,06,11,15,26,21.30
2015,06,11,15,27,21.30
2015,06,11,15,28,21.30
2015,06,11,15,29,21.40
2015,06,11,15,30,21.30
2015,06,11,15,31,21.30
2015,06,11,15,32,21.30
2015,06,11,15,33,21.20
2015,06,11,15,34,21.20
2015,06,11,15,35,21.10
2015,06,11,15,36,21.10
2015,06,11,15,37,21.00
2015,06,11,15,38,20.90
2015,06,11,15,39,20.90
2015,06,11,15,40,21.00
2015,06,11,15,41,21.00
2015,06,11,15,42,21.00
2015,06,11,15,43,21.00
2015,06,11,15,44,21.00
2015,06,11,15,45,21.00
2015,06,11,15,46,20.90
2015,06,11,15,47,20.90
2015,06,11,15,48,20.90
2015,06,11,15,49,20.90
2015,06,11,15,50,21.00
2015,06,11,15,51,21.10
2015,06,11,15,52,21.10
2015,06,11,15,53,21.10
2015,06,11,15,54,21.00
2015,06,11,15,55,20.90
2015,06,11,15,56,20.80
2015,06,11,15,57,20.70
2015,06,11,15,58,20.70
2015,06,11,15,59,20.70
2015,06,11,16,00,20.80
2015,06,11,16,01,20.80
2015,06,11,16,02,20.90
2015,06,11,16,03,20.90
2015,06,11,16,04,20.90
2015,06,11,16,05,20.90
2015,06,11,16,06,20.90
2015,06,11,16,07,20.90
2015,06,11,16,08,20.80
2015,06,11,16,09,20.80
2015,06,11,16,10,20.90
2015,06,11,16,11,20.90
2015,06,11,16,12,21.00
2015,06,11,16,13,21.00
2015,06,11,16,14,21.00
2015,06,11,16,15,21.00
2015,06,11,16,16,21.00
2015,06,11,16,17,21.00
2015,06,11,16,18,21.00
2015,06,11,16,19,20.90
2015,06,11,16,20,20.90
2015,06,11,16,21,20.80
2015,06,11,16,22,20.70
2015,06,11,16,23,20.70
2015,06,11,16,24,20.70
2015,06,11,16,25,20.70
2015,06,11,16,26,20.70
2015,06,11,16,27,20.70
2015,06,11,16,28,20.60
2015,06,11,16,29,20.60
2015,06,11,16,30,20.50
2015,06,11,16,31,20.50
2015,06,11,16,32,20.60
2015,06,11,16,33,20.60
2015,06,11,16,34,20.60
2015,06,11,16,35,20.60
2015,06,11,16,36,20.60
2015,06,11,16,37,20.60
2015,06,11,16,38,20.60
2015,06,11,16,39,20.60
2015,06,11,16,40,20.60
2015,06,11,16,41,20.60
2015,06,11,16,42,20.50
2015,06,11,16,43,20.50
2015,06,11,16,44,20.50
2015,06,11,16,45,20.40
2015,06,11,16,46,20.40
2015,06,11,16,47,20.50
2015,06,11,16,48,20.50
2015,06,11,16,49,20.50
2015,06,11,16,50,20.40
2015,06,11,16,51,20.40
2015,06,11,16,52,20.30
2015,06,11,16,53,20.30
2015,06,11,16,54,20.20
2015,06,11,16,55,20.20
2015,06,11,16,56,20.10
2015,06,11,16,57,20.00
2015,06,11,16,58,19.90
2015,06,11,16,59,19.80
2015,06,11,17,00,19.80
2015,06,11,17,01,19.70
2015,06,11,17,02,19.70
2015,06,11,17,03,19.70
2015,06,11,17,04,19.70
2015,06,11,17,05,19.80
2015,06,11,17,06,19.80
2015,06,11,17,07,19.80
2015,06,11,17,08,19.80
2015,06,11,17,09,19.80
2015,06,11,17,10,19.80
2015,06,11,17,11,19.80
2015,06,11,17,12,19.80
2015,06,11,17,13,19.90
2015,06,11,17,14,19.90
2015,06,11,17,15,19.90
2015,06,11,17,16,20.00
2015,06,11,17,17,20.10
2015,06,11,17,18,20.10
2015,06,11,17,19,20.20